Location: Ariel
(45.9570°N, 122.5700°W)
Time: 16:08:11
(UTC-07:00)

SPROUT - Visible Passes

Search period start: 21 April 2019 00:00
Search period end: 01 May 2019 00:00
Orbit: 601 x 612 km, 97.9° (Epoch: 21 April)

Date Brightness Start Highest point End Pass type
(mag) Time Alt. Az. Time Alt. Az. Time Alt. Az.
21 Apr ? 00:30:00 26° NNE 00:30:00 26° NNE 00:32:13 10° N visible
21 Apr ? 02:06:53 12° NW 02:06:53 12° NW 02:07:24 10° NW visible
22 Apr ? 00:43:08 30° N 00:43:08 30° N 00:45:25 10° N visible
23 Apr ? 00:56:16 31° N 00:56:16 31° N 00:58:34 10° N visible
23 Apr ? 23:32:31 12° NE 23:32:31 12° NE 23:33:57 10° NNE visible
24 Apr ? 01:09:24 30° NNW 01:09:24 30° NNW 01:11:39 10° NNW visible
24 Apr ? 23:45:39 16° NE 23:45:39 16° NE 23:47:43 10° NNE visible
25 Apr ? 01:22:32 28° NNW 01:22:32 28° NNW 01:24:41 10° NNW visible
25 Apr ? 23:58:47 20° NE 23:58:47 20° NE 00:01:14 10° NNE visible
26 Apr ? 01:35:39 24° NW 01:35:39 24° NW 01:37:38 10° NNW visible
27 Apr ? 00:11:55 25° NE 00:11:55 25° NE 00:14:36 10° N visible
27 Apr ? 01:48:47 20° NW 01:48:47 20° NW 01:50:31 10° NNW visible
28 Apr ? 00:25:03 31° NE 00:25:03 31° NE 00:27:54 10° N visible
28 Apr ? 02:01:55 16° NW 02:01:55 16° NW 02:03:17 10° NW visible
29 Apr ? 00:38:11 37° NNE 00:38:11 37° NNE 00:41:06 10° N visible
29 Apr ? 02:15:03 13° WNW 02:15:03 13° WNW 02:15:52 10° NW visible
30 Apr ? 00:51:19 42° N 00:51:19 42° N 00:54:16 10° N visible
30 Apr ? 23:27:34 11° ENE 23:27:52 11° ENE 23:29:18 10° NE visible
